Wind_Speed
3 5 10 13 14 19 20 21 16 19 21 13 22 18 32 35 37 34 37 42 42 36 37 35 29 26 21 20 17 16 15 13 13 13 13 13 12 10 10 11 13 14 17
4 4 7 9 10 6 17 23 21 22 20 19 22 20 32 35 43 40 39 44 44 43 39 33 31 27 28 25 21 19 19 15 18 18 17 17 17 16 16 16 15 17 23
5 2 1 4 6 7 7 21 21 25 21 24 27 24 30 36 38 43 47 44 44 44 43 37 35 30 26 26 22 20 20 19 23 22 23 24 24 22 21 21 21 23 22
6 4 3 1 3 5 5 3 13 21 26 27 23 22 26 26 27 43 45 39 47 48 45 43 44 32 31 33 25 21 22 24 25 27 27 29 29 29 30 27 24 28 22
7 7 6 4 3 4 6 5 2 11 24 23 28 19 21 21 22 36 44 43 47 46 49 40 36 32 35 35 29 27 25 29 32 33 32 32 31 31 34 35 32 28 23
10 7 7 4 4 4 5 6 6 7 9 17 23 29 25 24 31 35 32 47 49 39 39 40 33 27 29 29 31 33 33 32 33 34 34 33 29 23 25 32 32 29 31
16 10 5 2 3 3 4 4 6 7 9 12 15 18 22 24 30 34 36 31 31 32 37 35 33 33 35 35 35 36 36 35 37 36 38 42 33 29 25 25 25 30 29
17 15 10 6 4 4 5 5 6 7 8 9 9 11 13 14 18 21 25 26 27 27 29 33 33 36 36 35 35 36 38 37 39 34 32 24 22 29 29 30 30 35 31
19 17 15 10 8 7 7 6 6 6 8 10 10 10 11 11 12 15 17 20 23 25 28 29 30 31 34 36 36 39 39 39 38 32 29 29 29 27 29 33 31 33 35
15 17 14 14 11 10 9 9 10 10 10 11 12 12 12 12 13 15 15 18 20 23 26 29 30 33 36 37 40 42 40 40 40 36 34 32 30 30 30 33 36 34 36
8 14 18 18 17 16 14 12 12 13 14 15 15 16 16 16 17 17 19 21 21 23 26 29 31 34 37 40 41 42 43 39 40 39 39 36 33 33 35 37 38 39 37
6 10 15 21 20 20 20 20 19 16 15 16 17 20 22 22 23 22 24 23 29 29 28 29 34 36 39 41 47 45 50 38 43 37 42 38 26 34 39 41 38 40 44
11 10 12 13 13 14 15 19 22 22 23 22 20 20 21 29 29 28 29 34 31 35 36 38 39 39 42 46 43 42 36 36 40 43 46 30 36 40 42 39 39 38 45
15 14 16 17 17 16 17 18 19 18 19 18 19 21 24 25 30 35 35 36 31 34 37 38 40 42 48 35 37 36 40 43 36 38 39 36 34 38 36 40 43 45 41
18 17 15 17 19 17 17 16 14 15 15 12 10 7 13 20 25 31 34 36 40 36 34 34 39 39 33 29 30 34 35 39 41 43 39 38 38 39 39 42 41 43 49
23 26 24 23 20 22 19 20 21 19 16 17 17 14 15 14 21 25 27 32 36 43 46 43 36 34 34 35 37 37 38 36 37 37 39 40 41 42 41 44 43 40 46
23 25 31 32 28 26 23 24 23 25 24 21 21 20 21 21 19 21 25 27 29 31 34 37 36 35 32 33 37 35 36 34 36 37 40 42 42 43 39 39 44 49 55
24 28 29 30 34 33 33 29 29 29 26 26 27 25 25 24 28 25 26 27 29 30 31 33 35 37 36 36 37 37 38 38 37 40 45 43 42 38 42 49 51 52 51
19 23 27 29 29 33 32 32 29 32 32 30 29 29 27 29 30 31 29 29 31 31 33 34 35 37 36 36 38 38 40 39 41 44 45 40 40 44 50 53 52 49 50
28 20 25 26 23 32 33 33 33 31 31 33 33 31 31 35 33 37 33 34 35 34 34 35 36 36 37 39 40 41 42 42 44 46 40 42 46 50 51 50 50 52 52
30 25 28 29 33 25 34 34 35 36 35 35 34 33 33 37 34 39 36 37 37 37 36 36 36 37 39 42 44 45 43 46 43 41 43 45 47 48 48 49 51 52 52
23 24 31 27 33 32 28 37 34 35 31 30 33 35 37 38 36 37 38 37 38 39 39 39 39 40 37 35 35 36 47 41 38 41 43 45 46 47 49 50 51 52 52
26 25 26 25 27 31 35 35 30 31 36 33 33 33 35 34 35 37 39 35 34 35 36 35 33 31 33 39 41 36 37 40 41 43 44 47 48 50 52 55 53 51 51
29 34 35 31 29 28 25 26 28 31 32 32 33 35 33 35 34 33 31 30 27 28 25 29 31 35 38 32 39 40 40 42 44 47 47 49 52 53 54 52 50 49 48
14 13 23 27 26 25 24 28 23 24 25 26 26 28 33 32 31 30 28 26 23 24 29 36 36 32 31 32 38 39 42 44 46 47 47 47 46 45 44 44 44 46 46
24 20 19 17 22 22 24 23 27 32 35 39 25 26 26 27 25 23 22 21 24 28 31 35 36 36 37 37 38 39 40 40 40 39 40 41 43 45 45 46 45 44 44
Wind_Direction
313 342 351 352 13 188 200 194 196 187 208 211 213 208 197 187 186 193 188 179 188 188 190 194 197 200 211 213 224 218 235 244 249 246 241 239 240 246 256 269 281 289 282
300 334 5 353 29 128 200 197 206 214 201 206 200 215 203 185 193 194 200 191 191 198 196 198 207 202 210 215 225 233 232 251 257 255 252 248 249 250 252 258 288 273 286
288 267 323 2 28 66 171 219 222 202 214 213 213 220 207 200 200 196 203 208 199 199 202 203 206 206 225 234 226 231 228 260 261 261 261 261 259 261 259 263 269 274 287
272 230 246 42 42 55 74 180 213 227 221 215 219 215 217 230 213 203 207 204 199 205 209 214 219 212 219 224 228 222 244 257 263 264 266 265 267 271 271 264 268 272 283
250 219 235 212 162 101 82 74 133 224 223 211 208 213 217 210 214 211 205 199 207 215 224 234 224 220 219 217 230 243 250 255 262 266 268 268 269 272 275 272 274 278 282
234 227 243 225 202 156 125 113 106 113 136 197 200 219 215 211 221 225 218 214 220 228 234 238 223 217 217 226 235 244 255 266 268 269 268 268 269 273 302 271 270 275 277
220 230 241 256 213 182 165 133 118 119 121 133 162 177 199 199 212 219 214 220 228 229 226 221 219 222 224 227 237 247 257 268 270 263 269 266 258 261 280 285 280 284 286
217 219 222 220 218 209 200 182 159 147 148 141 144 148 166 175 185 192 203 213 215 217 215 218 216 220 225 231 240 250 259 264 268 268 283 279 263 266 267 279 279 287 286
213 213 217 222 218 215 207 205 203 189 174 170 175 177 177 178 183 191 194 202 208 212 216 218 219 223 230 237 245 254 258 262 264 277 265 265 264 269 273 277 282 290 280
220 221 220 210 205 206 206 214 218 221 214 207 201 199 197 197 206 213 209 214 215 217 219 222 226 231 236 243 250 255 259 261 262 262 261 263 268 273 278 281 281 282 281
210 226 224 212 215 221 223 222 226 231 233 231 228 225 224 224 225 227 227 227 225 223 228 232 236 241 246 250 254 257 258 256 260 263 263 262 265 277 279 282 281 282 284
214 224 219 223 228 237 243 242 238 232 231 234 237 240 239 237 237 239 248 245 249 242 240 245 248 248 250 252 258 258 254 260 271 263 257 258 275 267 276 277 273 281 290
232 233 215 208 217 223 231 241 242 242 241 241 246 246 245 240 240 246 244 243 250 245 243 244 249 251 255 258 257 270 267 264 257 267 261 269 265 270 271 270 279 278 284
252 242 231 229 237 242 240 237 241 230 224 224 231 239 243 246 245 246 253 248 250 244 247 249 252 256 255 263 265 256 257 277 260 262 277 275 267 271 271 274 277 289 288
261 248 245 248 245 237 239 238 220 223 208 208 221 254 250 249 247 245 249 251 247 250 252 249 251 255 251 247 255 262 266 264 262 265 271 273 272 275 272 275 282 282 277
259 253 261 255 254 251 249 243 240 236 232 239 249 259 267 267 255 255 253 250 249 250 254 259 258 258 258 251 255 262 265 263 263 265 267 270 273 277 281 279 273 279 286
265 261 255 259 252 250 248 247 248 249 248 242 245 261 260 267 270 262 258 256 254 251 249 252 255 259 261 257 253 255 259 260 263 265 270 274 278 280 282 272 273 275 278
277 263 254 256 245 250 251 248 245 242 242 244 249 258 263 267 271 274 264 260 256 256 253 252 250 251 252 253 254 256 262 263 265 269 273 277 281 280 259 275 278 279 283
266 265 261 262 258 249 248 239 243 237 238 244 248 252 260 265 268 270 259 258 256 254 255 254 252 251 253 254 257 258 260 265 266 268 272 270 263 267 268 276 278 281 281
251 257 266 264 267 244 239 234 249 246 251 243 244 248 255 262 267 264 263 261 257 258 260 260 257 257 257 258 260 261 265 271 270 274 258 259 265 270 272 276 278 279 278
259 249 261 269 268 266 239 242 242 252 257 249 239 245 251 256 260 262 263 264 263 261 263 264 263 264 263 261 262 264 266 263 265 265 263 266 270 273 275 275 275 276 275
245 254 251 259 262 259 256 254 258 258 247 241 240 245 252 258 259 259 265 266 265 264 264 264 264 265 264 268 265 257 258 259 265 266 269 272 274 273 271 273 274 274 276
260 257 263 257 255 256 251 250 250 253 252 246 252 258 263 265 266 263 266 268 265 263 267 267 269 268 262 256 257 263 268 268 269 270 271 270 269 271 273 273 273 273 277
271 271 267 264 250 238 230 226 230 238 245 245 249 253 255 258 261 264 266 269 269 272 274 259 242 249 257 262 269 268 270 271 271 271 272 273 273 273 275 282 289 289 289
270 290 273 264 235 225 227 236 241 243 246 246 253 257 259 261 264 266 267 268 266 266 268 261 264 273 281 280 274 273 274 274 275 274 276 280 287 291 291 289 288 288 289
307 277 278 265 229 219 236 247 252 258 266 260 257 256 261 264 266 268 270 263 258 258 260 264 270 272 272 271 271 270 272 276 282 285 284 283 286 287 287 288 288 287 288
Height
3076 3075 3072 3070 3066 3066 3071 3074 3079 3081 3085 3088 3092 3095 3100 3103 3109 3114 3120 3126 3132 3136 3140 3146 3150 3154 3159 3163 3164 3166 3168 3169 3169 3170 3171 3172 3171 3171 3172 3172 3172 3171 3171
3075 3074 3072 3071 3069 3068 3070 3073 3076 3080 3082 3086 3090 3095 3097 3101 3107 3113 3117 3122 3127 3132 3136 3142 3147 3151 3154 3158 3161 3163 3165 3165 3166 3168 3168 3168 3169 3170 3168 3168 3168 3167 3167
3074 3074 3074 3072 3069 3068 3070 3073 3075 3078 3080 3084 3088 3091 3095 3099 3101 3108 3113 3116 3121 3126 3132 3137 3142 3144 3149 3154 3156 3158 3159 3161 3163 3163 3163 3164 3164 3165 3165 3163 3163 3162 3161
3072 3072 3072 3072 3071 3069 3068 3070 3070 3072 3075 3079 3084 3087 3093 3096 3100 3104 3108 3113 3119 3123 3127 3132 3135 3138 3143 3149 3151 3153 3155 3157 3158 3157 3158 3158 3158 3158 3157 3157 3156 3155 3152
3070 3071 3072 3072 3071 3071 3070 3071 3070 3069 3071 3075 3080 3084 3087 3092 3096 3100 3104 3110 3114 3118 3121 3126 3130 3133 3138 3144 3145 3148 3150 3151 3151 3151 3151 3151 3151 3151 3150 3148 3148 3148 3144
3068 3068 3070 3072 3072 3072 3072 3072 3072 3071 3070 3073 3075 3080 3085 3088 3091 3095 3099 3104 3109 3113 3117 3122 3125 3128 3133 3136 3140 3142 3144 3144 3144 3144 3144 3144 3144 3143 3140 3138 3138 3139 3136
3064 3066 3067 3068 3070 3071 3071 3071 3072 3073 3072 3073 3075 3077 3081 3084 3089 3093 3097 3101 3105 3109 3113 3116 3119 3124 3128 3131 3133 3135 3137 3137 3136 3136 3133 3132 3133 3133 3135 3134 3134 3133 3131
3060 3062 3065 3066 3068 3069 3070 3071 3072 3073 3075 3076 3077 3078 3080 3082 3085 3088 3093 3096 3100 3104 3108 3111 3114 3119 3123 3126 3127 3128 3129 3130 3128 3126 3125 3125 3125 3126 3128 3127 3126 3125 3124
3057 3059 3062 3064 3066 3067 3069 3070 3072 3073 3074 3076 3078 3080 3082 3084 3086 3088 3090 3094 3097 3100 3104 3107 3111 3115 3116 3118 3119 3120 3121 3121 3121 3120 3121 3121 3121 3120 3120 3119 3119 3117 3115
3054 3056 3058 3061 3063 3065 3067 3069 3070 3072 3074 3076 3078 3080 3082 3083 3085 3087 3089 3092 3095 3098 3101 3104 3106 3108 3109 3110 3111 3111 3112 3113 3114 3114 3114 3114 3113 3112 3112 3112 3111 3109 3108
3052 3054 3056 3058 3060 3062 3064 3066 3067 3070 3072 3074 3076 3078 3080 3082 3083 3085 3088 3090 3092 3094 3096 3098 3099 3101 3102 3103 3103 3103 3103 3103 3104 3104 3104 3104 3103 3104 3104 3103 3101 3100 3099
3050 3051 3052 3054 3056 3058 3060 3061 3063 3065 3068 3070 3071 3073 3075 3077 3078 3081 3084 3086 3087 3089 3090 3091 3092 3093 3093 3094 3093 3091 3093 3091 3091 3089 3091 3093 3090 3094 3094 3093 3092 3090 3089
3048 3049 3050 3052 3054 3055 3056 3057 3058 3060 3061 3064 3066 3067 3068 3069 3071 3073 3075 3078 3079 3081 3083 3084 3084 3083 3083 3082 3081 3083 3082 3081 3083 3083 3081 3082 3084 3084 3084 3083 3082 3080 3077
3044 3046 3048 3049 3050 3052 3053 3053 3053 3054 3055 3057 3059 3060 3061 3063 3065 3067 3067 3070 3072 3073 3074 3074 3074 3073 3073 3073 3073 3073 3073 3070 3073 3074 3075 3074 3074 3074 3075 3073 3072 3069 3066
3038 3040 3042 3044 3045 3046 3048 3049 3049 3050 3052 3053 3054 3055 3055 3056 3057 3057 3059 3060 3062 3064 3065 3065 3065 3064 3064 3064 3064 3064 3064 3064 3064 3065 3065 3064 3064 3064 3064 3062 3061 3059 3057
3031 3033 3035 3036 3038 3041 3042 3043 3044 3045 3046 3048 3049 3049 3049 3049 3049 3049 3049 3050 3051 3053 3054 3055 3056 3056 3056 3057 3057 3057 3056 3055 3055 3055 3055 3055 3054 3054 3054 3052 3050 3049 3045
3025 3026 3027 3028 3030 3032 3034 3036 3038 3038 3039 3041 3042 3042 3042 3042 3042 3042 3041 3041 3042 3042 3043 3044 3045 3046 3047 3047 3047 3047 3047 3046 3045 3045 3045 3044 3043 3043 3042 3039 3039 3037 3034
3018 3018 3019 3020 3022 3023 3024 3027 3029 3030 3032 3033 3034 3034 3035 3034 3033 3033 3032 3032 3031 3032 3032 3032 3032 3033 3035 3036 3037 3036 3036 3036 3035 3034 3034 3034 3032 3032 3030 3030 3027 3024 3020
3010 3010 3011 3012 3013 3014 3016 3017 3018 3020 3022 3024 3025 3027 3027 3026 3025 3024 3024 3023 3022 3021 3022 3022 3022 3023 3024 3025 3026 3027 3027 3026 3025 3024 3023 3021 3021 3021 3020 3017 3014 3010 3007
3001 3001 3003 3003 3004 3005 3006 3008 3010 3010 3012 3014 3016 3017 3017 3016 3016 3015 3014 3013 3013 3013 3013 3012 3013 3013 3013 3014 3015 3016 3016 3015 3015 3012 3007 3010 3010 3008 3006 3003 3000 2997 2995
2994 2994 2996 2995 2995 2996 2998 2999 2999 3000 3001 3002 3004 3006 3006 3006 3006 3005 3005 3004 3004 3004 3003 3004 3003 3003 3003 3003 3003 3005 3004 3004 3000 3000 3000 2999 2996 2994 2992 2989 2986 2984 2981
2982 2984 2987 2987 2988 2988 2989 2988 2989 2990 2991 2993 2993 2994 2994 2995 2995 2995 2995 2994 2993 2993 2993 2993 2993 2992 2991 2992 2992 2992 2993 2988 2989 2989 2988 2986 2984 2982 2979 2976 2973 2970 2967
2975 2975 2977 2978 2979 2979 2979 2981 2981 2982 2983 2983 2983 2983 2983 2985 2985 2985 2985 2983 2983 2982 2982 2982 2981 2982 2982 2980 2980 2979 2979 2979 2978 2978 2976 2974 2971 2968 2965 2962 2958 2956 2955
2967 2967 2967 2968 2969 2968 2968 2968 2970 2971 2972 2973 2972 2972 2974 2975 2973 2972 2972 2972 2972 2972 2972 2973 2971 2971 2970 2966 2968 2969 2969 2968 2966 2964 2962 2960 2957 2954 2952 2950 2949 2946 2944
2961 2960 2959 2959 2960 2960 2960 2961 2961 2962 2962 2963 2964 2964 2965 2964 2964 2963 2962 2962 2962 2964 2964 2964 2961 2959 2957 2957 2958 2958 2957 2956 2954 2952 2950 2948 2947 2944 2942 2939 2936 2933 2930
2954 2952 2952 2953 2952 2950 2952 2952 2953 2955 2954 2954 2954 2955 2955 2955 2954 2953 2952 2953 2954 2955 2954 2953 2952 2951 2950 2949 2948 2946 2945 2944 2943 2941 2939 2936 2934 2931 2928 2926 2923 2920 2917